World > North America > United States > Pennsylvania

Hourly Crum Lynne, PA Regional Weather

Feedback E-mail the Weather

Quick WX

Crum Lynne, PA Weather Maps

°F °C°F °C
Crum Lynne Weather Map
UTC Time: 7/3/2022, 02:41
Your Time:

Crum Lynne, PA Regional Weather

Expires:202207030300;;584591
ASUS41 KPHI 030215
RWRPHI

REGIONAL WEATHER ROUNDUP
NATIONAL WEATHER SERVICE MOUNT HOLLY NJ
1000 PM EDT SAT JUL 02 2022

NOTE:  "FAIR" INDICATES FEW OR NO CLOUDS BELOW 12,000 FEET WITH NO
SIGNIFICANT WEATHER AND/OR OBSTRUCTIONS TO VISIBILITY.

 * = STATION DOES NOT REPORT PRECIPITATION (E.G. RAIN, SNOW, ETC.) 
        OR FOG.


PAZ043-044-047-054-055-060>062-066>071-030300-
EASTERN PENNSYLVANIA
  
CITY           SKY/WX    TMP DP  RH WIND       PRES   REMARKS
PHILADELPHIA   CLOUDY    78  68  71 W9        29.96R                  
NORTH PHILA    MOCLDY    79  64  60 SW6       29.96R                  
BLUE BELL*     MOCLDY    76  67  72 W3        29.97R                  
DOYLESTOWN     MOCLDY    78  65  63 SW6       29.95R                  
QUAKERTOWN*    CLEAR     75  75 100 CALM      29.96R                  
PERKASIE*      MOCLDY    75  70  83 SW3       29.97R                  
POTTSTOWN      MOCLDY    74  67  78 S5        29.97R                  
LANCASTER      MOCLDY    76  72  87 S7        29.96R                  
COATESVILLE    MOCLDY    72  70  94 CALM      29.99R                  
WEST CHESTER   FAIR      73  66  78 W3        29.97R                  
READING        MOCLDY    76  70  82 S6        29.94R                  
ALLENTOWN      MOCLDY    77  65  66 SW6       29.93R                  
QN CITY/ALNTWN FAIR      77  68  73 SW3       29.95S                  
MOUNT POCONO   MOCLDY    71  66  84 NW6       30.01S                  
HAZLETON       CLOUDY    72  64  78 N3        30.02S                  
LEHIGHTON      FAIR      72  68  88 CALM      29.95S                  
WILKES BARRE   MOCLDY    72  68  87 E6        29.97S                  

$$

SKY/WX - Weather  TMP - Temperature  DP - Dew Point  RH - Humidity
WIND - Wind Direction/Speed PRES - Barometric Pressure VSB - Visibility
WCI - Wind Chill Index E13G22 Wind - East Wind 13 mph/Gusts of 22 mph

Trending Headlines

Crum Lynne Radar Loop



Crum Lynne Quick Facts


National Two Day Weather Forecast


E-mail the Crum Lynne Weather Forecast

Voice your opinion or tell us about page issues...